Radiation Dose at Monitoring Post of Fukushima Daini Nuclear Power Station
Date,Time,MP-1(microSv/h),MP-2(microSv/h),MP-3(microSv/h),MP-4(microSv/h),MP-5(microSv/h),MP-6(microSv/h),MP-7(microSv/h),Wind Direction,Wind Velocity(m/s),Rain
2020/09/23,00:00,0.178,0.158,0.259,0.248,0.246,0.141,0.084,northwest,6.5,No
2020/09/23,00:10,0.179,0.157,0.264,0.248,0.248,0.140,0.084,north-northwest,6.2,Yes
2020/09/23,00:20,0.179,0.158,0.261,0.250,0.246,0.140,0.084,north-northwest,6.7,No
2020/09/23,00:30,0.178,0.158,0.262,0.248,0.247,0.141,0.084,north-northwest,6.5,No
2020/09/23,00:40,0.179,0.158,0.262,0.249,0.247,0.140,0.084,north-northwest,6.0,No
2020/09/23,00:50,0.178,0.158,0.262,0.249,0.245,0.141,0.085,northwest,4.2,Yes
2020/09/23,01:00,0.178,0.157,0.263,0.248,0.248,0.141,0.085,northwest,4.2,Yes
2020/09/23,01:10,0.180,0.158,0.260,0.249,0.244,0.139,0.084,north-northwest,4.6,Yes
2020/09/23,01:20,0.178,0.158,0.263,0.247,0.245,0.141,0.085,north-northwest,4.6,Yes
2020/09/23,01:30,0.180,0.158,0.262,0.249,0.247,0.140,0.085,north-northwest,4.5,Yes
2020/09/23,01:40,0.180,0.158,0.264,0.248,0.246,0.141,0.086,north-northwest,4.9,Yes
2020/09/23,01:50,0.179,0.158,0.262,0.249,0.249,0.142,0.086,north-northwest,5.5,Yes
2020/09/23,02:00,0.181,0.160,0.262,0.248,0.246,0.142,0.087,northwest,5.7,Yes
2020/09/23,02:10,0.180,0.158,0.262,0.247,0.247,0.143,0.087,north-northwest,5.2,Yes
2020/09/23,02:20,0.180,0.160,0.261,0.249,0.247,0.142,0.087,north,3.5,Yes
2020/09/23,02:30,0.179,0.158,0.262,0.247,0.246,0.141,0.086,northeast,3.6,Yes
2020/09/23,02:40,0.179,0.159,0.259,0.249,0.247,0.142,0.086,north-northeast,4.0,Yes
2020/09/23,02:50,0.180,0.158,0.262,0.246,0.245,0.141,0.086,north-northeast,3.2,Yes
2020/09/23,03:00,0.179,0.159,0.259,0.247,0.247,0.143,0.087,north-northeast,2.3,Yes
2020/09/23,03:10,0.181,0.160,0.261,0.248,0.245,0.143,0.088,northeast,3.8,Yes
2020/09/23,03:20,0.178,0.158,0.259,0.245,0.246,0.142,0.087,east,4.3,Yes
2020/09/23,03:30,0.179,0.159,0.258,0.247,0.246,0.143,0.086,east-southeast,5.6,Yes
2020/09/23,03:40,0.179,0.158,0.259,0.244,0.245,0.141,0.087,east-southeast,6.9,Yes
2020/09/23,03:50,0.177,0.158,0.258,0.246,0.246,0.141,0.086,east-southeast,5.7,Yes
2020/09/23,04:00,0.178,0.157,0.257,0.243,0.243,0.141,0.085,east-southeast,3.2,Yes
2020/09/23,04:10,0.178,0.157,0.256,0.246,0.245,0.141,0.085,east-southeast,2.3,Yes
2020/09/23,04:20,0.179,0.156,0.258,0.243,0.242,0.140,0.084,east-southeast,3.4,Yes
2020/09/23,04:30,0.176,0.157,0.255,0.245,0.244,0.138,0.085,southeast,5.0,Yes
2020/09/23,04:40,0.177,0.155,0.258,0.244,0.243,0.140,0.085,east-southeast,4.6,Yes
2020/09/23,04:50,0.177,0.156,0.255,0.242,0.243,0.138,0.085,east,4.0,Yes
2020/09/23,05:00,0.176,0.156,0.256,0.244,0.245,0.140,0.085,east,3.7,Yes
2020/09/23,05:10,0.178,0.156,0.256,0.241,0.241,0.139,0.084,east,2.3,Yes
2020/09/23,05:20,0.176,0.155,0.255,0.244,0.243,0.138,0.085,east,4.4,Yes
2020/09/23,05:30,0.177,0.154,0.256,0.242,0.242,0.140,0.083,east-southeast,5.3,Yes
2020/09/23,05:40,0.175,0.156,0.253,0.243,0.241,0.138,0.084,east,5.7,Yes
2020/09/23,05:50,0.176,0.155,0.255,0.242,0.243,0.138,0.084,east,2.8,Yes
2020/09/23,06:00,0.175,0.155,0.253,0.242,0.241,0.139,0.085,east,2.6,Yes
2020/09/23,06:10,0.175,0.155,0.255,0.242,0.243,0.137,0.084,east,4.6,Yes
2020/09/23,06:20,0.177,0.155,0.253,0.241,0.240,0.139,0.084,east-northeast,3.2,Yes
2020/09/23,06:30,0.176,0.154,0.255,0.242,0.243,0.138,0.084,north,3.3,Yes
2020/09/23,06:40,0.176,0.156,0.254,0.241,0.242,0.138,0.084,north-northwest,4.3,Yes
2020/09/23,06:50,0.176,0.154,0.254,0.242,0.242,0.138,0.085,north,4.3,Yes
2020/09/23,07:00,0.176,0.156,0.254,0.239,0.242,0.137,0.084,north,5.0,Yes
2020/09/23,07:10,0.176,0.157,0.254,0.243,0.240,0.139,0.085,north,5.2,Yes
2020/09/23,07:20,0.175,0.156,0.256,0.241,0.244,0.138,0.085,north,5.6,Yes
2020/09/23,07:30,0.176,0.156,0.254,0.240,0.240,0.139,0.085,north-northwest,4.9,Yes
2020/09/23,07:40,0.175,0.155,0.255,0.243,0.245,0.139,0.085,northwest,4.9,Yes
2020/09/23,07:50,0.176,0.156,0.253,0.239,0.242,0.138,0.084,north-northwest,5.2,No
2020/09/23,08:00,0.175,0.155,0.255,0.241,0.243,0.138,0.084,north-northwest,5.3,No
2020/09/23,08:10,0.176,0.155,0.253,0.240,0.244,0.137,0.084,northwest,6.4,No
2020/09/23,08:20,0.175,0.153,0.254,0.241,0.240,0.137,0.083,northwest,6.5,No
2020/09/23,08:30,0.173,0.155,0.253,0.239,0.242,0.137,0.083,northwest,6.4,No
2020/09/23,08:40,0.175,0.154,0.252,0.239,0.241,0.136,0.082,north-northwest,7.1,No
2020/09/23,08:50,0.173,0.153,0.255,0.241,0.240,0.137,0.083,north-northwest,7.1,No
2020/09/23,09:00,0.175,0.154,0.251,0.238,0.242,0.137,0.082,north-northwest,5.9,No
2020/09/23,09:10,0.175,0.153,0.254,0.240,0.239,0.135,0.083,north-northwest,5.9,No
2020/09/23,09:20,0.174,0.154,0.254,0.240,0.239,0.136,0.082,north-northwest,5.4,No
2020/09/23,09:30,0.175,0.153,0.252,0.238,0.242,0.136,0.082,north-northwest,5.0,No
2020/09/23,09:40,0.174,0.152,0.252,0.238,0.241,0.136,0.082,north-northwest,5.5,No
2020/09/23,09:50,0.174,0.153,0.253,0.240,0.240,0.136,0.082,north-northwest,5.4,No
2020/09/23,10:00,0.174,0.154,0.251,0.240,0.238,0.136,0.081,north-northwest,5.6,No
2020/09/23,10:10,0.175,0.153,0.251,0.238,0.243,0.137,0.082,north-northwest,4.9,No
2020/09/23,10:20,0.174,0.152,0.254,0.238,0.242,0.136,0.082,north,4.7,No
2020/09/23,10:30,0.173,0.154,0.252,0.240,0.239,0.136,0.081,north,4.2,No
2020/09/23,10:40,0.176,0.153,0.252,0.241,0.239,0.136,0.081,north,3.6,No
2020/09/23,10:50,0.175,0.154,0.254,0.239,0.243,0.138,0.082,north,4.2,No
2020/09/23,11:00,0.172,0.154,0.254,0.239,0.243,0.136,0.082,north,4.6,No
2020/09/23,11:10,0.175,0.154,0.253,0.241,0.240,0.136,0.082,north,5.1,No
2020/09/23,11:20,0.174,0.152,0.255,0.238,0.242,0.136,0.082,north,6.1,No
2020/09/23,11:30,0.174,0.154,0.255,0.239,0.244,0.136,0.082,north,6.2,No
2020/09/23,11:40,0.176,0.155,0.250,0.241,0.240,0.136,0.082,north-northeast,6.1,No
2020/09/23,11:50,0.175,0.154,0.255,0.239,0.240,0.137,0.081,north-northeast,5.5,No
2020/09/23,12:00,0.174,0.153,0.255,0.237,0.243,0.137,0.082,north-northeast,5.5,No
2020/09/23,12:10,0.175,0.154,0.254,0.241,0.243,0.137,0.083,north-northeast,6.2,No
2020/09/23,12:20,0.176,0.155,0.252,0.241,0.241,0.136,0.082,north,5.1,No
2020/09/23,12:30,0.173,0.153,0.256,0.241,0.238,0.138,0.081,north,6.0,No
2020/09/23,12:40,0.174,0.152,0.254,0.238,0.244,0.137,0.082,north,5.5,No
2020/09/23,12:50,0.176,0.154,0.252,0.243,0.244,0.137,0.082,north,6.1,No
2020/09/23,13:00,0.175,0.154,0.255,0.241,0.241,0.136,0.081,north,6.9,No
2020/09/23,13:10,0.172,0.153,0.254,0.240,0.240,0.137,0.081,north-northeast,7.3,No
2020/09/23,13:20,0.175,0.154,0.253,0.239,0.240,0.137,0.081,north,6.9,No
2020/09/23,13:30,0.175,0.155,0.252,0.239,0.240,0.137,0.081,north,7.6,No
2020/09/23,13:40,0.175,0.154,0.254,0.241,0.238,0.137,0.081,north-northeast,6.3,No
2020/09/23,13:50,0.174,0.154,0.257,0.241,0.240,0.136,0.081,north-northeast,5.4,No
2020/09/23,14:00,0.172,0.153,0.255,0.241,0.242,0.136,0.081,north,5.9,No
2020/09/23,14:10,0.176,0.155,0.252,0.239,0.244,0.137,0.082,north,5.9,No
2020/09/23,14:20,0.175,0.155,0.252,0.238,0.244,0.138,0.083,north,5.6,No
2020/09/23,14:30,0.175,0.154,0.256,0.239,0.241,0.138,0.082,north,4.2,No
2020/09/23,14:40,0.174,0.153,0.256,0.242,0.240,0.138,0.082,north-northeast,5.9,No
2020/09/23,14:50,0.176,0.155,0.253,0.243,0.241,0.137,0.082,north-northeast,5.5,No
2020/09/23,15:00,0.176,0.154,0.254,0.241,0.244,0.137,0.082,north,5.3,No
2020/09/23,15:10,0.175,0.153,0.257,0.241,0.244,0.137,0.082,north,5.7,No
2020/09/23,15:20,0.175,0.155,0.255,0.244,0.242,0.137,0.082,north,5.9,No
2020/09/23,15:30,0.176,0.156,0.254,0.242,0.240,0.138,0.083,north-northeast,7.3,No
2020/09/23,15:40,0.175,0.154,0.256,0.240,0.245,0.137,0.083,north-northeast,4.3,No
2020/09/23,15:50,0.175,0.155,0.257,0.244,0.244,0.138,0.082,north-northeast,5.1,No
2020/09/23,16:00,0.176,0.154,0.254,0.243,0.242,0.138,0.084,north-northeast,5.7,No
2020/09/23,16:10,0.175,0.153,0.256,0.239,0.242,0.138,0.082,north-northeast,3.8,No
2020/09/23,16:20,0.175,0.155,0.254,0.244,0.244,0.137,0.081,north-northeast,3.9,No
2020/09/23,16:30,0.177,0.155,0.255,0.243,0.241,0.138,0.082,north-northeast,5.9,No
2020/09/23,16:40,0.175,0.154,0.257,0.240,0.242,0.138,0.082,north-northeast,5.6,No
2020/09/23,16:50,0.174,0.156,0.253,0.243,0.245,0.137,0.082,north-northeast,5.4,No
2020/09/23,17:00,0.176,0.155,0.256,0.242,0.241,0.137,0.083,north-northeast,4.8,No
2020/09/23,17:10,0.176,0.155,0.257,0.241,0.243,0.138,0.082,north-northeast,5.3,No
2020/09/23,17:20,0.176,0.155,0.254,0.244,0.244,0.137,0.083,north-northeast,6.2,No
2020/09/23,17:30,0.177,0.154,0.257,0.242,0.241,0.138,0.082,north-northeast,5.6,No
2020/09/23,17:40,0.175,0.155,0.255,0.242,0.244,0.138,0.082,north-northeast,5.7,No
2020/09/23,17:50,0.177,0.154,0.255,0.242,0.244,0.137,0.082,north-northeast,5.8,No
2020/09/23,18:00,0.176,0.154,0.256,0.240,0.241,0.138,0.083,north-northeast,5.6,No
2020/09/23,18:10,0.176,0.155,0.256,0.243,0.244,0.138,0.082,north-northeast,6.7,No
2020/09/23,18:20,0.176,0.153,0.256,0.242,0.244,0.137,0.082,north-northeast,6.6,No
2020/09/23,18:30,0.175,0.154,0.255,0.240,0.242,0.138,0.083,north-northeast,6.6,No
2020/09/23,18:40,0.176,0.155,0.256,0.244,0.245,0.137,0.082,northeast,5.0,No
2020/09/23,18:50,0.177,0.154,0.256,0.242,0.241,0.138,0.082,northeast,6.4,No
2020/09/23,19:00,0.174,0.155,0.255,0.243,0.243,0.138,0.082,north-northeast,6.9,No
2020/09/23,19:10,0.177,0.154,0.256,0.242,0.244,0.137,0.083,northeast,8.4,No
2020/09/23,19:20,0.175,0.155,0.255,0.242,0.240,0.137,0.083,northeast,9.0,No
2020/09/23,19:30,0.176,0.154,0.256,0.244,0.244,0.137,0.082,northeast,7.8,No
2020/09/23,19:40,0.177,0.155,0.255,0.240,0.243,0.138,0.083,north-northeast,6.6,No
2020/09/23,19:50,0.176,0.155,0.256,0.242,0.243,0.138,0.083,north-northeast,6.5,No
2020/09/23,20:00,0.177,0.155,0.256,0.242,0.243,0.137,0.082,northeast,7.3,No
2020/09/23,20:10,0.175,0.155,0.255,0.241,0.241,0.138,0.083,northeast,6.6,No
2020/09/23,20:20,0.175,0.154,0.257,0.243,0.245,0.138,0.082,north-northeast,7.2,No
2020/09/23,20:30,0.176,0.156,0.254,0.240,0.242,0.138,0.082,north-northeast,7.3,No
2020/09/23,20:40,0.176,0.154,0.256,0.243,0.242,0.138,0.083,northeast,6.6,No
2020/09/23,20:50,0.176,0.154,0.256,0.242,0.244,0.138,0.082,north-northeast,7.1,No
2020/09/23,21:00,0.176,0.155,0.254,0.242,0.243,0.137,0.083,north-northeast,5.8,No
2020/09/23,21:10,0.176,0.155,0.257,0.244,0.243,0.138,0.082,north-northeast,6.8,No
2020/09/23,21:20,0.177,0.155,0.254,0.241,0.243,0.138,0.083,north-northeast,7.3,No
2020/09/23,21:30,0.176,0.154,0.257,0.243,0.242,0.138,0.083,north-northeast,7.0,No
2020/09/23,21:40,0.177,0.155,0.255,0.242,0.245,0.139,0.082,northeast,6.3,No
2020/09/23,21:50,0.176,0.155,0.256,0.242,0.242,0.137,0.083,northeast,6.5,No
2020/09/23,22:00,0.174,0.154,0.255,0.243,0.242,0.139,0.083,north-northeast,6.8,No
2020/09/23,22:10,0.175,0.156,0.254,0.241,0.243,0.138,0.082,north-northeast,6.1,No
2020/09/23,22:20,0.176,0.154,0.257,0.244,0.241,0.137,0.083,northeast,6.1,No
2020/09/23,22:30,0.177,0.156,0.254,0.242,0.244,0.139,0.082,north-northeast,6.1,No
2020/09/23,22:40,0.177,0.155,0.256,0.242,0.243,0.138,0.082,north-northeast,7.1,No
2020/09/23,22:50,0.176,0.155,0.256,0.243,0.242,0.138,0.082,north-northeast,5.3,No
2020/09/23,23:00,0.177,0.155,0.255,0.240,0.245,0.139,0.083,north-northeast,6.7,No
2020/09/23,23:10,0.177,0.155,0.258,0.243,0.242,0.138,0.083,north-northeast,6.8,No
2020/09/23,23:20,0.176,0.155,0.255,0.242,0.244,0.138,0.083,north-northeast,8.1,No
2020/09/23,23:30,0.176,0.154,0.257,0.243,0.243,0.138,0.083,north-northeast,7.3,No
2020/09/23,23:40,0.173,0.154,0.257,0.242,0.242,0.137,0.083,north-northeast,8.3,No
2020/09/23,23:50,0.178,0.155,0.256,0.241,0.244,0.139,0.082,north-northeast,7.3,No
